KB0BS-13 Weather Reports


time (UTC)temp
C
wind
direction
speed
KPH
gust
KPH
rain 1hr
cm
rain 24hr
cm
rain mn
cm
humidity
%
barometer
mb
20260508014636 2 207 0.0 0.0 0.00 0.00 0.00 94 1011.6
20260508014132 2 207 0.0 0.0 0.00 0.00 0.00 92 1011.6
20260508013628 2 206 0.0 0.0 0.00 0.00 0.00 92 1011.8
20260508013125 2 206 0.0 0.0 0.00 0.00 0.00 92 1011.6
20260508012623 2 206 0.0 0.0 0.00 0.00 0.00 91 1011.5
20260508012120 2 206 0.0 3.2 0.00 0.00 0.00 91 1011.4
20260508011618 3 207 1.6 1.6 0.00 0.00 0.00 91 1011.4
20260508011115 3 205 1.6 3.2 0.00 0.00 0.00 91 1011.5
20260508010612 3 172 3.2 4.8 0.00 0.00 0.00 91 1011.4
20260508010110 3 180 4.8 4.8 0.00 0.00 0.00 90 1011.5
20260508005606 3 187 4.8 6.4 0.00 0.00 0.00 90 1011.6
20260508005102 3 221 3.2 4.8 0.00 0.00 0.00 90 1011.8
20260508004559 3 224 3.2 3.2 0.00 0.00 0.00 90 1011.8
20260508004055 3 260 1.6 3.2 0.00 0.00 0.00 90 1011.7
20260508003552 3 247 6.4 6.4 0.00 0.00 0.00 90 1011.7
20260508003050 3 280 3.2 4.8 0.00 0.00 0.00 91 1011.7
20260508002546 3 299 3.2 4.8 0.00 0.00 0.00 91 1011.6
20260508002043 3 303 4.8 4.8 0.00 0.00 0.00 91 1011.8
20260508001538 3 312 4.8 6.4 0.00 0.00 0.00 90 1011.9
20260508001035 3 291 3.2 4.8 0.00 0.00 0.00 90 1011.8
20260508000531 3 293 4.8 6.4 0.00 0.00 0.00 90 1011.7
20260508000029 3 314 9.7 11.3 0.00 0.00 0.00 90 1011.5
20260507235525 3 315 6.4 11.3 0.00 0.00 0.00 90 1011.7
20260507235023 3 297 11.3 12.9 0.00 0.00 0.00 89 1011.4
20260507234519 3 306 4.8 9.7 0.00 0.00 0.00 90 1011.6
20260507234015 3 300 4.8 11.3 0.00 0.00 0.00 90 1011.6
20260507233512 3 306 4.8 6.4 0.00 0.00 0.00 90 1011.7
20260507233011 4 299 1.6 9.7 0.00 0.00 0.00 89 1011.4
20260507232507 4 308 3.2 12.9 0.00 0.00 0.00 88 1011.5
20260507232004 4 320 4.8 12.9 0.00 0.00 0.00 88 1011.6
20260507231500 4 320 3.2 6.4 0.00 0.00 0.00 87 1011.6
20260507230958 5 340 6.4 11.3 0.00 0.00 0.00 86 1011.4
20260507230454 5 308 4.8 4.8 0.00 0.00 0.00 85 1011.6
20260507225949 5 336 4.8 6.4 0.00 0.00 0.00 84 1011.6
20260507225447 5 325 6.4 6.4 0.00 0.00 0.00 83 1011.5
20260507224943 5 338 4.8 6.4 0.00 0.00 0.00 82 1011.5
20260507224439 5 308 3.2 6.4 0.00 0.00 0.00 83 1011.5
20260507223936 5 300 6.4 9.7 0.00 0.00 0.00 84 1011.8
20260507223431 4 294 4.8 4.8 0.00 0.00 0.00 86 1011.7
20260507222928 5 325 6.4 6.4 0.00 0.00 0.00 85 1011.7
20260507222425 4 304 3.2 4.8 0.00 0.00 0.00 86 1011.6
20260507221922 4 303 8.0 9.7 0.00 0.00 0.00 86 1011.7
20260507221418 4 323 6.4 6.4 0.00 0.00 0.00 86 1011.8
20260507220914 4 311 6.4 9.7 0.00 0.00 0.00 86 1011.7
20260507220412 4 297 6.4 6.4 0.00 0.00 0.00 87 1011.7
20260507215908 4 297 6.4 9.7 0.00 0.00 0.00 86 1011.6
20260507215405 4 279 11.3 12.9 0.00 0.00 0.00 85 1011.8
20260507214902 4 294 8.0 11.3 0.00 0.00 0.00 87 1011.7
20260507214400 4 312 6.4 11.3 0.00 0.00 0.00 87 1011.7
20260507213855 5 302 6.4 14.5 0.00 0.00 0.00 85 1011.6
20260507213352 5 290 9.7 16.1 0.00 0.00 0.00 85 1011.8
20260507212849 5 275 11.3 17.7 0.00 0.00 0.00 85 1011.7
20260507212345 5 316 8.0 14.5 0.00 0.00 0.00 85 1011.7
20260507211842 5 299 6.4 14.5 0.00 0.00 0.00 84 1011.7
20260507211339 5 303 8.0 14.5 0.00 0.00 0.00 84 1011.7
20260507210835 4 312 6.4 12.9 0.00 0.00 0.00 84 1011.4
20260507210332 4 338 4.8 16.1 0.00 0.00 0.00 85 1011.6
20260507205829 4 305 12.9 17.7 0.00 0.00 0.00 84 1011.5
20260507205326 4 303 14.5 22.5 0.00 0.00 0.00 84 1011.6
20260507204822 3 334 11.3 25.7 0.00 0.00 0.00 84 1011.4
20260507204319 3 334 11.3 25.7 0.00 0.00 0.00 84 1011.4
20260507203817 6 332 11.3 24.1 0.00 0.00 0.00 78 1011.5
20260507203315 6 271 11.3 16.1 0.00 0.00 0.00 65 1011.1
20260507202811 6 235 19.3 25.7 0.00 0.00 0.00 63 1011.0
20260507202307 6 271 17.7 20.9 0.00 0.00 0.00 61 1011.0
20260507201802 6 235 17.7 22.5 0.00 0.00 0.00 63 1011.1
20260507201258 7 242 16.1 20.9 0.00 0.00 0.00 62 1011.0
20260507200755 7 236 9.7 17.7 0.00 0.00 0.00 63 1011.1
20260507200251 7 222 17.7 22.5 0.00 0.00 0.00 61 1011.0
20260507195747 7 239 12.9 14.5 0.00 0.00 0.00 61 1011.1
20260507195245 7 215 17.7 22.5 0.00 0.00 0.00 60 1010.8
20260507194742 7 228 16.1 17.7 0.00 0.00 0.00 61 1011.0
20260507194238 6 218 9.7 14.5 0.00 0.00 0.00 63 1011.3
20260507193735 6 246 17.7 22.5 0.00 0.00 0.00 65 1011.4
20260507193232 6 248 16.1 22.5 0.00 0.00 0.00 64 1011.5
20260507192728 6 253 17.7 22.5 0.00 0.00 0.00 67 1011.4
20260507192225 6 251 14.5 22.5 0.00 0.00 0.00 64 1011.4
20260507191721 6 236 17.7 22.5 0.00 0.00 0.00 62 1011.3
20260507191218 6 235 16.1 17.7 0.00 0.00 0.00 63 1011.4
20260507190715 6 225 11.3 17.7 0.00 0.00 0.00 64 1011.3
20260507190213 6 235 8.0 16.1 0.00 0.00 0.00 63 1011.3
20260507185711 7 206 8.0 16.1 0.00 0.00 0.00 66 1011.4
20260507185208 6 224 6.4 9.7 0.00 0.00 0.00 66 1011.4
20260507184706 6 216 6.4 9.7 0.00 0.00 0.00 74 1011.5
20260507184204 6 254 6.4 11.3 0.00 0.00 0.00 73 1011.5
20260507183659 6 269 3.2 12.9 0.00 0.00 0.00 73 1011.5
20260507183156 6 224 9.7 14.5 0.00 0.00 0.00 73 1011.6
20260507182654 6 242 8.0 14.5 0.00 0.00 0.00 75 1011.6
20260507182149 5 269 8.0 12.9 0.00 0.00 0.00 79 1011.7
20260507181645 5 282 8.0 11.3 0.00 0.00 0.00 81 1011.9
20260507181142 5 256 9.7 14.5 0.00 0.00 0.00 83 1011.9
20260507180638 4 265 8.0 12.9 0.00 0.00 0.00 88 1012.0
20260507180136 3 307 9.7 14.5 0.00 0.00 0.00 90 1012.2
20260507175631 3 254 8.0 16.1 0.00 0.00 0.00 92 1012.4
20260507175129 3 272 8.0 20.9 0.00 0.00 0.00 91 1012.4
20260507174626 3 283 20.9 27.4 0.00 0.00 0.00 88 1012.3
20260507174124 5 315 19.3 29.0 0.00 0.00 0.00 83 1012.1
20260507173621 6 263 20.9 24.1 0.00 0.00 0.00 63 1011.9
20260507173118 6 240 12.9 27.4 0.00 0.00 0.00 62 1011.9
20260507172614 7 219 16.1 22.5 0.00 0.00 0.00 61 1012.0
20260507172111 6 210 16.1 17.7 0.00 0.00 0.00 61 1011.7
20260507171606 6 209 14.5 22.5 0.00 0.00 0.00 63 1011.9
20260507171103 6 216 8.0 20.9 0.00 0.00 0.00 64 1011.9
20260507170600 6 227 17.7 20.9 0.00 0.00 0.00 63 1012.0
20260507170057 6 221 9.7 14.5 0.00 0.00 0.00 62 1012.1
20260507165553 6 236 12.9 22.5 0.00 0.00 0.00 64 1012.0
20260507165049 6 220 16.1 22.5 0.00 0.00 0.00 64 1012.2
20260507164546 6 226 12.9 16.1 0.00 0.00 0.00 68 1012.4
20260507164043 5 198 6.4 14.5 0.00 0.00 0.00 71 1012.4
20260507163540 5 211 11.3 20.9 0.00 0.00 0.00 69 1012.3
20260507163038 6 190 11.3 16.1 0.00 0.00 0.00 68 1012.4
20260507162538 6 192 6.4 14.5 0.00 0.00 0.00 67 1012.3
20260507162036 6 246 9.7 11.3 0.00 0.00 0.00 64 1012.6
20260507161532 6 252 12.9 17.7 0.00 0.00 0.00 63 1012.6
20260507161029 6 234 3.2 16.1 0.00 0.00 0.00 64 1012.7
20260507160525 6 232 17.7 20.9 0.00 0.00 0.00 66 1012.7
20260507160021 6 249 12.9 16.1 0.00 0.00 0.00 64 1012.9
20260507155516 6 261 9.7 12.9 0.00 0.00 0.00 64 1012.7
20260507155014 6 243 14.5 16.1 0.00 0.00 0.00 64 1012.7
20260507154511 5 248 8.0 17.7 0.00 0.00 0.00 68 1012.9
20260507154009 5 267 14.5 17.7 0.00 0.00 0.00 67 1013.0
20260507153504 5 277 14.5 16.1 0.00 0.00 0.00 67 1012.9
20260507153000 5 277 12.9 14.5 0.00 0.00 0.00 67 1012.9
20260507152456 5 262 11.3 11.3 0.00 0.00 0.00 67 1012.9
20260507151953 5 224 11.3 14.5 0.00 0.00 0.00 67 1013.0
20260507151449 5 248 11.3 14.5 0.00 0.00 0.00 68 1012.8
20260507150946 5 267 17.7 17.7 0.00 0.00 0.00 68 1012.9
20260507150443 5 248 12.9 14.5 0.00 0.00 0.00 66 1012.9
20260507145939 5 228 12.9 16.1 0.00 0.00 0.00 67 1012.9
20260507145435 5 239 9.7 14.5 0.00 0.00 0.00 70 1012.9
20260507144932 5 25 11.3 14.5 0.00 0.00 0.00 68 1012.8
20260507144429 5 248 12.9 16.1 0.00 0.00 0.00 70 1012.8
20260507143926 5 240 8.0 17.7 0.00 0.00 0.00 68 1013.1
20260507143424 5 260 9.7 11.3 0.00 0.00 0.00 69 1013.0
20260507142920 5 266 12.9 20.9 0.00 0.00 0.00 70 1013.2
20260507142416 5 254 8.0 14.5 0.00 0.00 0.00 72 1012.9
20260507141914 5 218 14.5 17.7 0.00 0.00 0.00 71 1013.0
20260507141409 5 230 8.0 17.7 0.00 0.00 0.00 73 1013.1
20260507140906 5 268 8.0 12.9 0.00 0.00 0.00 73 1013.2
20260507140403 5 227 14.5 22.5 0.00 0.00 0.00 71 1013.1
20260507135901 4 211 8.0 12.9 0.00 0.00 0.00 74 1013.1
20260507135357 4 261 11.3 14.5 0.00 0.00 0.00 73 1013.0
20260507134855 4 249 16.1 16.1 0.00 0.00 0.00 73 1013.0
20260507134351 4 239 8.0 12.9 0.00 0.00 0.00 75 1012.9
20260507133847 4 221 9.7 14.5 0.00 0.00 0.00 75 1013.0
20260507133342 4 232 9.7 16.1 0.00 0.00 0.00 75 1013.1
20260507132842 4 241 8.0 11.3 0.00 0.00 0.00 76 1012.9
20260507132337 3 238 8.0 14.5 0.00 0.00 0.00 77 1012.9
20260507131835 3 223 4.8 12.9 0.00 0.00 0.00 79 1012.9
20260507131331 3 212 4.8 14.5 0.00 0.00 0.00 79 1012.9
20260507130828 3 190 9.7 12.9 0.00 0.00 0.00 79 1013.0
20260507130325 3 216 6.4 12.9 0.00 0.00 0.00 80 1012.8
20260507125824 3 202 6.4 9.7 0.00 0.00 0.00 79 1012.8
20260507125321 3 239 6.4 11.3 0.00 0.00 0.00 82 1012.7
20260507124818 3 226 8.0 12.9 0.00 0.00 0.00 81 1012.8
20260507124314 2 236 6.4 12.9 0.00 0.00 0.00 81 1012.8
20260507123813 2 216 9.7 12.9 0.00 0.00 0.00 82 1013.0
20260507123310 2 227 8.0 12.9 0.00 0.00 0.00 83 1013.0
20260507122806 2 207 6.4 9.7 0.00 0.00 0.00 83 1012.9
20260507122306 2 209 6.4 11.3 0.00 0.00 0.00 84 1012.9
20260507121758 2 203 11.3 16.1 0.00 0.00 0.00 82 1012.7
20260507121254 2 218 8.0 12.9 0.00 0.00 0.00 83 1012.8
20260507120750 2 113 12.9 16.1 0.00 0.00 0.00 82 1012.7
20260507120247 2 113 9.7 14.5 0.00 0.00 0.00 82 1012.7
20260507115743 1 295 6.4 9.7 0.00 0.00 0.00 83 1012.7
20260507115239 1 264 4.8 6.4 0.00 0.00 0.00 86 1012.7
20260507114735 0 217 3.2 4.8 0.00 0.00 0.00 88 1012.5
20260507114232 0 234 0.0 0.0 0.00 0.00 0.00 91 1012.6
20260507113730 -1 263 0.0 0.0 0.00 0.00 0.00 93 1012.7
20260507113226 -1 252 0.0 0.0 0.00 0.00 0.00 94 1012.5
20260507112724 -1 270 0.0 0.0 0.00 0.00 0.00 93 1012.5
20260507112221 -1 236 0.0 0.0 0.00 0.00 0.00 94 1012.5
20260507111718 -1 236 0.0 0.0 0.00 0.00 0.00 95 1012.5
20260507111215 -1 98 0.0 0.0 0.00 0.00 0.00 97 1012.5
20260507110711 -1 226 0.0 0.0 0.00 0.00 0.00 98 1012.4
20260507110208 -1 226 0.0 0.0 0.00 0.00 0.00 98 1012.7
20260507105705 -1 226 0.0 0.0 0.00 0.00 0.00 98 1012.5
20260507105200 -1 226 0.0 0.0 0.00 0.00 0.00 98 1012.4
20260507104658 -1 226 0.0 0.0 0.00 0.00 0.00 98 1012.6
20260507104154 -1 226 0.0 0.0 0.00 0.00 0.00 98 1012.5
20260507103650 -1 225 0.0 0.0 0.00 0.00 0.00 97 1012.6
20260507103147 -1 225 0.0 0.0 0.00 0.00 0.00 97 1012.6
20260507102644 -1 226 0.0 0.0 0.00 0.00 0.00 97 1012.3
20260507102140 -1 69 0.0 0.0 0.00 0.00 0.00 97 1012.4
20260507101636 -1 305 0.0 0.0 0.00 0.00 0.00 96 1012.5
20260507101132 -1 305 0.0 0.0 0.00 0.00 0.00 96 1012.7
20260507100629 -1 305 0.0 0.0 0.00 0.00 0.00 97 1012.3
20260507100128 -1 305 0.0 0.0 0.00 0.00 0.00 97 1012.4
20260507095625 -1 305 0.0 0.0 0.00 0.00 0.00 97 1012.5
20260507095121 -1 305 0.0 0.0 0.00 0.00 0.00 96 1012.4
20260507094618 -1 235 0.0 0.0 0.00 0.00 0.00 95 1012.6
20260507094115 -1 235 0.0 0.0 0.00 0.00 0.00 95 1012.5
20260507093612 -1 235 0.0 0.0 0.00 0.00 0.00 96 1012.6
20260507093111 -1 234 0.0 0.0 0.00 0.00 0.00 95 1012.7
20260507092607 -1 234 0.0 0.0 0.00 0.00 0.00 91 1012.9
20260507092103 0 234 0.0 0.0 0.00 0.00 0.00 92 1012.8
20260507091600 0 234 0.0 0.0 0.00 0.00 0.00 89 1012.8
20260507091056 0 234 0.0 0.0 0.00 0.00 0.00 89 1012.8
20260507090552 0 234 0.0 0.0 0.00 0.00 0.00 89 1012.9
20260507090049 0 234 0.0 0.0 0.00 0.00 0.00 90 1012.8
20260507085546 0 234 0.0 0.0 0.00 0.00 0.00 90 1012.8
20260507085043 0 234 0.0 0.0 0.00 0.00 0.00 90 1012.8
20260507084539 0 234 0.0 0.0 0.00 0.00 0.00 90 1012.9
20260507084037 0 234 0.0 0.0 0.00 0.00 0.00 91 1013.0
20260507083533 0 234 0.0 0.0 0.00 0.00 0.00 90 1012.9
20260507083030 0 234 0.0 0.0 0.00 0.00 0.00 90 1012.9
20260507082526 0 234 0.0 0.0 0.00 0.00 0.00 90 1013.0
20260507082022 0 234 0.0 0.0 0.00 0.00 0.00 90 1013.1
20260507081519 0 234 0.0 0.0 0.00 0.00 0.00 90 1013.1
20260507081016 0 234 0.0 0.0 0.00 0.00 0.00 90 1013.2
20260507080511 0 235 0.0 0.0 0.00 0.00 0.00 91 1013.0
20260507080008 0 234 0.0 0.0 0.00 0.00 0.00 91 1013.0
20260507075503 0 234 0.0 0.0 0.00 0.00 0.00 91 1013.2
20260507075000 0 235 0.0 0.0 0.00 0.00 0.00 91 1013.1
20260507074457 0 234 0.0 0.0 0.00 0.00 0.00 91 1013.3
20260507073955 0 240 0.0 0.0 0.00 0.00 0.00 91 1013.2
20260507073451 0 230 0.0 0.0 0.00 0.00 0.00 91 1013.3
20260507072948 0 232 0.0 0.0 0.00 0.00 0.00 92 1013.5
20260507072445 0 229 0.0 0.0 0.00 0.00 0.00 92 1013.3
20260507071943 0 237 0.0 0.0 0.00 0.00 0.00 93 1013.4
20260507071440 -1 233 0.0 0.0 0.00 0.00 0.00 94 1013.5
20260507070936 -1 272 0.0 0.0 0.00 0.00 0.00 95 1013.4
20260507070434 -1 273 0.0 0.0 0.00 0.00 0.00 96 1013.3
20260507065930 -1 273 0.0 0.0 0.00 0.00 0.00 96 1013.4
20260507065427 -1 273 0.0 0.0 0.00 0.00 0.00 95 1013.4
20260507064925 -1 273 0.0 0.0 0.00 0.00 0.00 96 1013.7
20260507064423 -1 273 0.0 0.0 0.00 0.00 0.00 96 1013.5
20260507063920 -1 273 0.0 0.0 0.00 0.00 0.00 98 1013.6
20260507063417 -1 273 0.0 0.0 0.00 0.00 0.00 98 1013.7
20260507062914 -1 273 0.0 0.0 0.00 0.00 0.00 98 1013.7
20260507062411 -1 273 0.0 0.0 0.00 0.00 0.00 98 1013.8
20260507061908 -1 273 0.0 0.0 0.00 0.00 0.00 98 1013.8
20260507061407 -1 273 0.0 0.0 0.00 0.00 0.00 99 1013.6
20260507060905 -1 273 0.0 0.0 0.00 0.00 0.00 99 1013.9
20260507060401 -1 273 0.0 0.0 0.00 0.00 0.00 99 1014.0
20260507055858 -1 273 0.0 0.0 0.00 0.00 0.00 99 1013.7
20260507055353 -1 273 0.0 0.0 0.00 0.00 0.00 99 1013.8
20260507054850 -1 273 0.0 0.0 0.00 0.00 0.00 99 1013.9
20260507054346 -1 273 0.0 0.0 0.00 0.00 0.00 99 1013.9
20260507053843 -1 273 0.0 0.0 0.00 0.00 0.00 99 1013.9
20260507053341 -1 273 0.0 0.0 0.00 0.00 0.00 98 1014.0
20260507052839 -1 273 0.0 0.0 0.00 0.00 0.00 99 1014.1
20260507052336 -1 273 0.0 0.0 0.00 0.00 0.00 99 1014.1
20260507051834 -1 273 0.0 0.0 0.00 0.00 0.00 99 1013.9
20260507051331 -1 273 0.0 0.0 0.00 0.00 0.00 99 1014.2
20260507050828 -1 273 0.0 0.0 0.00 0.00 0.00 98 1014.1
20260507050324 -1 273 0.0 0.0 0.00 0.00 0.00 98 1014.1
20260507045821 -1 273 0.0 0.0 0.00 0.00 0.00 97 1014.1
20260507045318 0 273 0.0 0.0 0.00 0.00 0.00 97 1014.3
20260507044815 0 273 0.0 0.0 0.00 0.00 0.00 97 1014.1
20260507044311 0 273 0.0 0.0 0.00 0.00 0.00 95 1014.4
20260507043807 0 273 0.0 0.0 0.00 0.00 0.00 93 1014.3
20260507043304 0 273 0.0 0.0 0.00 0.00 0.00 92 1014.4
20260507042800 0 273 0.0 0.0 0.00 0.00 0.00 95 1014.4
20260507042256 0 273 0.0 0.0 0.00 0.00 0.00 96 1014.3
20260507041753 0 273 0.0 0.0 0.00 0.00 0.00 96 1014.2
20260507041249 0 273 0.0 0.0 0.00 0.00 0.00 95 1014.2
20260507040747 0 273 0.0 0.0 0.00 0.00 0.00 94 1014.4
20260507040243 0 273 0.0 0.0 0.00 0.00 0.00 93 1014.2
20260507035739 0 273 0.0 0.0 0.00 0.00 0.00 92 1014.3
20260507035234 0 273 0.0 0.0 0.00 0.00 0.00 92 1014.3
20260507034732 0 273 0.0 1.6 0.00 0.00 0.00 92 1014.3
20260507034229 0 273 0.0 0.0 0.00 0.00 0.00 91 1014.5
20260507033727 0 273 0.0 1.6 0.00 0.00 0.00 90 1014.1
20260507033224 0 273 1.6 1.6 0.00 0.00 0.00 90 1014.4
20260507032722 0 273 1.6 3.2 0.00 0.00 0.00 92 1014.3
20260507032218 0 273 1.6 3.2 0.00 0.00 0.00 90 1014.5
20260507031715 0 273 3.2 3.2 0.00 0.00 0.00 90 1014.6
20260507031211 0 273 1.6 1.6 0.00 0.00 0.00 91 1014.4
20260507030708 1 273 1.6 1.6 0.00 0.00 0.00 83 1014.6
20260507030206 1 273 0.0 0.0 0.00 0.00 0.00 85 1014.4
20260507025702 1 273 0.0 0.0 0.00 0.00 0.00 87 1014.5
20260507025159 1 273 0.0 0.0 0.00 0.00 0.00 86 1014.4
20260507024658 1 273 0.0 0.0 0.00 0.00 0.00 85 1014.3
20260507024154 1 273 0.0 0.0 0.00 0.00 0.00 82 1014.4
20260507023650 1 273 0.0 0.0 0.00 0.00 0.00 82 1014.4
20260507023148 1 274 0.0 0.0 0.00 0.00 0.00 80 1014.5
20260507022644 1 274 0.0 0.0 0.00 0.00 0.00 83 1014.4
20260507022140 1 319 0.0 0.0 0.00 0.00 0.00 84 1014.2
20260507021637 1 320 0.0 0.0 0.00 0.00 0.00 85 1014.3
20260507021132 1 320 0.0 0.0 0.00 0.00 0.00 83 1014.1
20260507020631 1 320 0.0 0.0 0.00 0.00 0.00 86 1014.1
20260507020126 1 320 0.0 0.0 0.00 0.00 0.00 81 1014.4
20260507015625 1 320 0.0 0.0 0.00 0.00 0.00 86 1014.2
20260507015122 1 320 0.0 0.0 0.00 0.00 0.00 82 1014.2